Regional Weather Roundup
Issued by NWS

Home | Current Version | Previous Version | Text Only | Print | Product List | Glossary Off
Versions: 1 2 3 4 5 6 7 8 9 10 11 12 13 14 15 16 17 18 19 20 21 22 23 24 25 26 27 28 29 30 31 32 33 34 35 36 37 38 39 40 41 42 43 44 45 46 47 48 49 50

000
ASUS43 KFSD 191102
RWRSD

WEATHER ROUNDUP FOR SOUTH DAKOTA
NATIONAL WEATHER SERVICE SIOUX FALLS SD
500 AM CST FRI DEC 19 2014

NOTE: "FAIR" INDICATES FEW OR NO CLOUDS BELOW 12,000 FEET WITH NO
SIGNIFICANT WEATHER AND/OR OBSTRUCTIONS TO VISIBILITY.


SDZ001>005-009-010-012>017-191200-
NORTHWEST AND NORTH CENTRAL SOUTH DAKOTA

CITY           SKY/WX    TMP DP  RH WIND       PRES   REMARKS
BUFFALO          N/A     27  20  75 W8        29.87F WCI  19
FAITH            N/A     27  22  81 SW9       29.96S WCI  18
MOBRIDGE       MOCLDY    22  20  92 SE10      29.96F WCI  11
$$

SDZ012>016-024>037-041>051-057-063-072>074-191200-
SOUTHWEST AND SOUTH CENTRAL SOUTH DAKOTA

CITY           SKY/WX    TMP DP  RH WIND       PRES   REMARKS
RAPID CTY ARPT PTCLDY    26  17  68 NW8       29.97F WCI  18
PIERRE         PTCLDY    15  12  88 S8        30.02F FOG     WCI   4
CUSTER         CLEAR     20  12  71 NW5       29.95F WCI  13
ELLSWORTH AFB  PTCLDY    24  17  74 W6        29.96F WCI  16
PHILIP         CLEAR     15  12  88 W5        30.01S WCI   8
PINE RIDGE     CLEAR     24  16  71 W3        30.02F
WINNER         FAIR      19  14  81 S7        30.03F WCI  10
$$

SDZ004>011-016>023-039-040-191200-
NORTHEAST SOUTH DAKOTA

CITY           SKY/WX    TMP DP  RH WIND       PRES   REMARKS
ABERDEEN       CLOUDY    28  24  85 S13       30.08F WCI  17
WATERTOWN      CLOUDY    26  24  92 S15G21    30.07F WCI  14
SISSETON         N/A     25  25 100 S8        30.10F WCI  16
$$

SDZ017-020-022-023-036>040-048>070-191200-
SOUTHEAST SOUTH DAKOTA

CITY           SKY/WX    TMP DP  RH WIND       PRES   REMARKS
SIOUX FALLS    CLOUDY    28  25  88 S8        30.14F WCI  20
HURON          CLOUDY    28  25  88 S8        30.09F WCI  20
MITCHELL       CLOUDY    30  26  85 S13       30.11F WCI  20
YANKTON        CLOUDY    28  25  86 S10       30.16S WCI  19
$$

ABBREVIATIONS USED IN REMARKS
   TC - TEMPERATURE IN CELSIUS
  WCI - WIND CHILL INDEX
   HX - HEAT INDEX
  VSB - VISIBILITY




USA.gov is the U.S. government's official web portal to all federal, state and local government web resources and services.